Accueil
METAR-TAF:

METAR-TAF

Aéroports :

Grafton, Australie

latitude: 29-45-36S, longitude: 153-01-48E, altitude: 34 m

Observation

Le bulletin a été fait il y a 49 minutes, à 22:32 UTC
Vent 5 kt de nord/nord-est
Température 22°C
Humidité 94%
Pression 1016 hPa
Visibilité 10 km ou plus
Nuages épars à une hauteur de 100 ft
Nuages épars à une hauteur de 500 ft

METAR: YGFN 232232Z AUTO 03005KT 9999 // SCT001 SCT005 22/21 Q1016

Heure: 10:21 (23:21 UTC)


TAF: absent

Observations et prévisions météorologiques de plus de 4000 aéroports (messages METAR et TAF).

Les stations disponibles sont représentées par des disques jaunes et rouges sur la carte.

Passer la souris dessus pour voir le nom de la station.

Cliquer dessus pour voir les observations et prévisions météorologiques.

Pour changer de carte: cliquez sur les boutons verts avec une croix noire pour zoomer, sur le bouton vert avec un tiret pour effectuer un zoom arrière, ou sur les flèches vertes pour les cartes adjacentes.


METAR-TAF: